Location: Davayat
(45.9471°N, 3.1105°E)
Time: 17:28:41
(UTC+00:00)

CENTAUR R/B - Pass Details

Date: 01 December 2020
Orbit: 750 x 1438 km, 63.4° (Epoch: 11 January)

Event Time Altitude Azimuth Distance (km) Brightness Sun altitude
Rises 19:49:10 0° 237° (WSW) 3,437 5.9 -38.4°
Reaches altitude 10° 19:51:34 10° 242° (WSW) 2,581 5.2 -38.8°
Enters shadow 19:54:58 34° 263° (W) 1,543 3.8 -39.4°
